QPF
0.00 0.00 0.00 0.00 0.01 0.01 0.00 0.00 0.00 0.00 0.00 0.00 0.00 0.00 0.00 0.00 0.00 0.00 0.00 0.00 0.00 0.00 0.00 0.00 0.00 0.00 0.00 0.00 0.00 0.00 0.00 0.00 0.00 0.00 0.00 0.00 0.00 0.00 0.00 0.00 0.00 0.00 0.00 0.01 0.19
0.00 0.01 0.01 0.00 0.00 0.00 0.00 0.00 0.00 0.00 0.00 0.00 0.00 0.00 0.00 0.00 0.00 0.00 0.00 0.00 0.00 0.00 0.00 0.00 0.00 0.00 0.00 0.00 0.00 0.00 0.00 0.00 0.00 0.00 0.00 0.00 0.00 0.00 0.00 0.00 0.00 0.00 0.00 0.01 0.11
0.00 0.00 0.00 0.00 0.00 0.00 0.00 0.00 0.00 0.00 0.00 0.00 0.00 0.00 0.00 0.00 0.00 0.00 0.00 0.00 0.00 0.00 0.00 0.00 0.00 0.00 0.00 0.00 0.00 0.00 0.00 0.00 0.00 0.00 0.00 0.00 0.00 0.00 0.00 0.00 0.00 0.00 0.00 0.02 0.03
0.00 0.00 0.00 0.00 0.00 0.00 0.00 0.00 0.00 0.00 0.00 0.00 0.00 0.00 0.00 0.00 0.00 0.00 0.00 0.00 0.00 0.00 0.00 0.00 0.00 0.00 0.00 0.00 0.00 0.00 0.00 0.00 0.00 0.00 0.00 0.00 0.00 0.00 0.00 0.00 0.00 0.00 0.00 0.03 0.04
0.00 0.00 0.00 0.01 0.00 0.00 0.00 0.00 0.00 0.00 0.00 0.00 0.00 0.00 0.00 0.00 0.00 0.00 0.00 0.00 0.00 0.00 0.00 0.00 0.00 0.00 0.00 0.00 0.00 0.00 0.00 0.00 0.00 0.00 0.00 0.00 0.00 0.00 0.00 0.00 0.00 0.00 0.00 0.00 0.05
0.00 0.00 0.00 0.00 0.01 0.00 0.00 0.00 0.00 0.00 0.00 0.00 0.00 0.00 0.00 0.00 0.00 0.00 0.00 0.00 0.00 0.00 0.00 0.00 0.00 0.00 0.00 0.00 0.00 0.00 0.00 0.00 0.00 0.00 0.00 0.00 0.00 0.00 0.00 0.00 0.00 0.00 0.00 0.00 0.00
0.00 0.00 0.00 0.00 0.00 0.01 0.00 0.00 0.00 0.00 0.00 0.00 0.00 0.00 0.00 0.00 0.00 0.00 0.00 0.00 0.00 0.00 0.00 0.00 0.00 0.00 0.00 0.00 0.00 0.00 0.00 0.00 0.00 0.00 0.00 0.00 0.00 0.00 0.00 0.00 0.00 0.00 0.00 0.00 0.00
0.00 0.00 0.00 0.00 0.01 0.01 0.01 0.00 0.00 0.00 0.00 0.00 0.00 0.00 0.00 0.00 0.00 0.00 0.00 0.00 0.00 0.00 0.00 0.00 0.00 0.00 0.00 0.00 0.00 0.00 0.01 0.00 0.00 0.00 0.00 0.00 0.00 0.00 0.00 0.00 0.00 0.00 0.00 0.00 0.00
0.00 0.00 0.00 0.00 0.00 0.01 0.00 0.00 0.00 0.00 0.00 0.00 0.00 0.00 0.00 0.00 0.00 0.00 0.00 0.00 0.00 0.00 0.00 0.00 0.00 0.00 0.00 0.00 0.00 0.00 0.01 0.02 0.00 0.00 0.00 0.00 0.00 0.00 0.00 0.00 0.00 0.00 0.00 0.00 0.00
0.00 0.00 0.00 0.00 0.00 0.00 0.00 0.00 0.00 0.00 0.00 0.00 0.00 0.00 0.00 0.00 0.00 0.00 0.00 0.00 0.00 0.00 0.00 0.00 0.00 0.00 0.00 0.00 0.00 0.00 0.00 0.00 0.00 0.00 0.00 0.00 0.00 0.00 0.00 0.00 0.00 0.00 0.00 0.00 0.00
0.00 0.00 0.00 0.00 0.00 0.00 0.00 0.00 0.01 0.02 0.00 0.00 0.00 0.00 0.00 0.00 0.00 0.00 0.00 0.00 0.00 0.00 0.00 0.00 0.00 0.00 0.00 0.00 0.00 0.00 0.00 0.00 0.00 0.00 0.00 0.00 0.00 0.00 0.00 0.00 0.00 0.00 0.00 0.00 0.00
0.00 0.00 0.00 0.00 0.00 0.00 0.00 0.00 0.00 0.00 0.00 0.00 0.00 0.00 0.00 0.00 0.00 0.00 0.00 0.00 0.00 0.00 0.00 0.00 0.00 0.00 0.00 0.00 0.00 0.00 0.00 0.00 0.00 0.00 0.00 0.00 0.00 0.00 0.00 0.00 0.00 0.00 0.00 0.00 0.00
0.00 0.00 0.00 0.00 0.00 0.00 0.00 0.00 0.00 0.00 0.00 0.00 0.00 0.00 0.00 0.00 0.00 0.00 0.00 0.00 0.00 0.00 0.00 0.00 0.00 0.00 0.00 0.00 0.00 0.00 0.00 0.00 0.00 0.00 0.00 0.00 0.00 0.00 0.00 0.00 0.00 0.00 0.00 0.00 0.00
0.00 0.00 0.00 0.00 0.00 0.00 0.00 0.00 0.00 0.00 0.00 0.00 0.00 0.00 0.00 0.00 0.00 0.00 0.00 0.00 0.00 0.00 0.00 0.00 0.00 0.00 0.00 0.00 0.00 0.00 0.00 0.00 0.00 0.00 0.00 0.00 0.00 0.00 0.00 0.00 0.00 0.00 0.00 0.00 0.00
0.00 0.00 0.00 0.00 0.00 0.00 0.00 0.00 0.00 0.00 0.01 0.00 0.00 0.00 0.00 0.00 0.00 0.00 0.00 0.00 0.00 0.00 0.00 0.00 0.00 0.00 0.00 0.00 0.00 0.00 0.00 0.00 0.00 0.00 0.00 0.00 0.00 0.00 0.00 0.00 0.00 0.00 0.00 0.00 0.00
0.00 0.00 0.00 0.00 0.00 0.00 0.00 0.00 0.00 0.01 0.02 0.00 0.00 0.00 0.00 0.00 0.00 0.00 0.00 0.00 0.00 0.00 0.00 0.00 0.00 0.00 0.00 0.00 0.00 0.00 0.00 0.00 0.00 0.00 0.00 0.00 0.00 0.00 0.00 0.00 0.00 0.00 0.00 0.00 0.00
0.00 0.00 0.00 0.00 0.00 0.00 0.00 0.00 0.04 0.02 0.00 0.00 0.00 0.00 0.00 0.00 0.00 0.00 0.00 0.00 0.00 0.00 0.00 0.00 0.00 0.00 0.00 0.00 0.00 0.00 0.00 0.00 0.00 0.00 0.00 0.00 0.00 0.00 0.00 0.00 0.00 0.00 0.00 0.00 0.00
0.00 0.00 0.00 0.00 0.00 0.00 0.00 0.04 0.07 0.00 0.03 0.00 0.00 0.00 0.00 0.00 0.00 0.00 0.00 0.00 0.00 0.00 0.00 0.00 0.00 0.00 0.00 0.00 0.00 0.00 0.00 0.00 0.00 0.00 0.00 0.00 0.00 0.00 0.00 0.00 0.00 0.00 0.00 0.00 0.00
0.00 0.00 0.00 0.00 0.00 0.00 0.02 0.11 0.07 0.05 0.07 0.04 0.00 0.00 0.00 0.00 0.00 0.00 0.00 0.00 0.00 0.00 0.00 0.00 0.00 0.00 0.00 0.00 0.00 0.00 0.00 0.00 0.00 0.00 0.00 0.00 0.00 0.00 0.00 0.00 0.00 0.00 0.00 0.00 0.00
0.00 0.00 0.01 0.01 0.00 0.02 0.08 0.07 0.04 0.12 0.08 0.03 0.01 0.00 0.00 0.00 0.00 0.00 0.00 0.00 0.00 0.00 0.00 0.00 0.00 0.00 0.00 0.00 0.00 0.00 0.00 0.00 0.00 0.00 0.01 0.00 0.00 0.00 0.00 0.00 0.00 0.00 0.00 0.00 0.00
0.00 0.03 0.08 0.03 0.01 0.07 0.05 0.02 0.03 0.18 0.18 0.06 0.02 0.03 0.00 0.00 0.00 0.00 0.00 0.00 0.00 0.00 0.00 0.00 0.00 0.00 0.00 0.00 0.00 0.00 0.00 0.00 0.00 0.00 0.00 0.02 0.04 0.00 0.00 0.00 0.00 0.00 0.00 0.00 0.00
0.00 0.04 0.10 0.03 0.04 0.05 0.02 0.02 0.02 0.12 0.24 0.13 0.02 0.01 0.03 0.00 0.00 0.00 0.00 0.00 0.00 0.00 0.00 0.00 0.00 0.00 0.00 0.00 0.00 0.00 0.00 0.00 0.00 0.00 0.00 0.01 0.03 0.02 0.00 0.00 0.00 0.00 0.00 0.00 0.00
0.00 0.04 0.07 0.03 0.06 0.06 0.06 0.09 0.02 0.06 0.13 0.16 0.05 0.01 0.02 0.01 0.00 0.00 0.00 0.00 0.00 0.00 0.00 0.00 0.00 0.06 0.03 0.01 0.00 0.00 0.00 0.00 0.00 0.00 0.00 0.01 0.03 0.00 0.00 0.00 0.00 0.00 0.00 0.00 0.00
0.00 0.04 0.23 0.13 0.05 0.11 0.21 0.21 0.12 0.00 0.03 0.13 0.10 0.04 0.05 0.04 0.01 0.00 0.00 0.00 0.00 0.00 0.00 0.00 0.00 0.03 0.06 0.02 0.00 0.00 0.00 0.00 0.00 0.01 0.01 0.00 0.01 0.01 0.00 0.00 0.00 0.00 0.00 0.00 0.00
0.02 0.08 0.13 0.55 0.28 0.11 0.18 0.29 0.08 0.01 0.03 0.07 0.21 0.12 0.08 0.12 0.03 0.01 0.02 0.00 0.00 0.00 0.00 0.00 0.00 0.01 0.01 0.02 0.00 0.00 0.00 0.00 0.00 0.00 0.00 0.00 0.00 0.00 0.00 0.00 0.00 0.00 0.00 0.00 0.00
0.01 0.01 0.00 0.02 0.07 0.11 0.18 0.23 0.07 0.02 0.06 0.08 0.14 0.15 0.10 0.17 0.04 0.01 0.02 0.00 0.00 0.00 0.00 0.00 0.02 0.01 0.02 0.00 0.00 0.00 0.00 0.00 0.00 0.00 0.00 0.00 0.00 0.00 0.00 0.00 0.00 0.00 0.00 0.00 0.00
0.01 0.01 0.01 0.01 0.05 0.07 0.11 0.12 0.05 0.02 0.01 0.01 0.06 0.14 0.17 0.13 0.17 0.03 0.00 0.00 0.00 0.00 0.00 0.00 0.11 0.05 0.03 0.02 0.00 0.00 0.00 0.00 0.00 0.00 0.00 0.00 0.00 0.00 0.00 0.00 0.00 0.00 0.00 0.00 0.00
MSLP
1017.49 1017.15 1016.87 1016.66 1016.35 1016.12 1015.90 1015.76 1015.66 1015.45 1015.12 1014.87 1014.56 1014.54 1014.42 1014.13 1013.81 1013.36 1011.64 1009.63 1009.59 1009.73 1010.10 1009.19 1008.66 1008.32 1007.93 1007.20 1006.44 1005.52 1004.71 1003.46 1002.41 1001.66 1000.53 1000.26 999.99 999.62 999.02 999.03 999.03 998.66 999.45 1001.65 1002.62
1017.39 1017.08 1016.77 1016.49 1016.22 1016.09 1015.77 1015.55 1015.36 1015.30 1014.98 1014.69 1014.50 1014.41 1014.39 1014.19 1013.41 1011.31 1008.95 1008.98 1009.12 1009.99 1009.76 1008.65 1007.89 1007.82 1007.37 1006.90 1006.32 1005.78 1004.49 1003.24 1002.45 1001.75 1001.02 1002.19 1001.89 1001.03 999.49 999.86 999.66 999.24 1000.13 1002.03 1004.09
1017.27 1016.91 1016.65 1016.27 1015.97 1015.68 1015.58 1015.34 1015.10 1015.03 1014.83 1014.55 1014.41 1014.38 1014.39 1014.27 1012.60 1007.65 1005.85 1007.76 1008.55 1009.60 1009.19 1008.25 1007.71 1007.05 1006.75 1006.31 1005.81 1005.29 1004.73 1003.48 1002.27 1002.90 1002.27 1003.41 1002.92 1002.44 1000.68 1000.27 1000.06 999.92 1000.78 1001.91 1001.82
1017.17 1016.83 1016.44 1016.26 1015.84 1015.50 1015.35 1015.16 1014.92 1014.72 1014.61 1014.44 1014.31 1014.28 1014.22 1013.64 1009.34 1006.19 1005.83 1006.76 1008.16 1008.95 1008.93 1008.07 1007.15 1006.23 1005.85 1005.41 1005.29 1004.79 1004.75 1004.08 1003.07 1003.37 1003.94 1004.29 1004.53 1004.01 1002.57 1001.12 1001.08 1000.81 1000.93 1001.87 1002.85
1017.06 1016.70 1016.41 1016.03 1015.81 1015.47 1015.05 1014.98 1014.80 1014.49 1014.34 1014.26 1014.16 1014.20 1014.03 1011.46 1008.01 1006.35 1006.17 1006.81 1008.02 1008.53 1008.01 1007.30 1006.40 1005.85 1004.87 1004.98 1004.93 1004.31 1004.05 1003.98 1003.61 1004.14 1004.52 1005.25 1005.14 1005.33 1004.20 1002.82 1002.28 1001.82 1001.56 1001.50 1002.92
1016.84 1016.51 1016.17 1015.70 1015.43 1015.19 1014.89 1014.59 1014.51 1014.31 1014.08 1014.04 1013.96 1014.02 1013.17 1009.58 1005.45 1004.81 1005.64 1006.62 1006.77 1007.42 1007.30 1006.70 1005.52 1005.27 1005.04 1004.45 1004.10 1004.16 1003.87 1003.67 1003.65 1003.98 1004.63 1005.44 1005.76 1006.20 1005.21 1004.79 1003.97 1002.76 1002.36 1001.77 1001.58
1016.78 1016.47 1016.02 1015.59 1015.22 1014.89 1014.59 1014.28 1014.12 1014.00 1013.81 1013.69 1013.75 1013.50 1011.47 1007.52 1004.64 1004.13 1004.53 1004.67 1005.32 1006.21 1006.21 1005.95 1005.33 1004.72 1004.68 1004.06 1003.94 1003.83 1003.85 1003.75 1004.14 1004.67 1005.11 1005.97 1005.90 1005.97 1006.09 1005.68 1004.67 1003.57 1002.95 1002.35 1001.57
1016.58 1016.31 1015.86 1015.45 1014.99 1014.73 1014.36 1014.02 1013.72 1013.57 1013.43 1013.32 1013.46 1013.00 1009.43 1005.35 1004.99 1004.98 1004.38 1004.08 1004.41 1005.26 1005.71 1005.50 1005.39 1004.62 1004.05 1003.99 1003.83 1003.76 1004.06 1004.24 1004.06 1004.94 1005.52 1006.39 1006.17 1005.72 1005.83 1006.03 1005.22 1004.58 1004.18 1003.17 1002.16
1016.44 1015.97 1015.61 1015.17 1014.76 1014.36 1014.12 1013.86 1013.39 1012.97 1012.75 1013.02 1013.19 1012.17 1007.15 1003.82 1004.21 1003.90 1003.90 1003.52 1004.05 1005.04 1005.40 1004.98 1004.95 1004.48 1004.04 1003.50 1003.19 1003.14 1003.70 1004.95 1005.11 1003.75 1004.91 1006.38 1006.54 1006.45 1006.25 1005.61 1005.59 1005.25 1004.50 1003.33 1002.37
1016.08 1015.74 1015.28 1014.82 1014.39 1014.08 1013.80 1013.51 1013.04 1013.05 1012.64 1012.50 1011.74 1010.85 1006.36 1003.09 1002.78 1003.04 1002.88 1002.83 1003.58 1004.48 1004.78 1004.23 1004.15 1003.93 1003.28 1002.76 1001.75 1002.35 1003.53 1004.54 1004.25 1003.22 1004.04 1006.06 1006.12 1005.88 1005.37 1005.38 1005.30 1005.17 1004.71 1003.37 1002.83
1015.76 1015.46 1015.18 1014.71 1014.27 1013.89 1013.57 1012.54 1012.71 1012.22 1011.36 1008.84 1006.85 1005.12 1002.11 1001.83 1001.71 1001.98 1002.01 1002.39 1003.25 1003.80 1003.38 1003.20 1003.23 1002.56 1002.25 1002.14 1002.24 1003.79 1003.09 1003.13 1002.56 1002.54 1004.06 1004.71 1004.85 1005.28 1004.88 1005.18 1005.26 1005.06 1004.67 1003.60 1003.70
1015.49 1015.07 1014.67 1014.27 1013.97 1013.78 1013.51 1011.60 1008.86 1008.96 1007.85 1006.46 1005.43 1004.00 1002.47 1001.08 1001.14 1001.30 1001.72 1001.99 1002.66 1002.98 1002.98 1002.96 1002.04 1001.96 1002.04 1001.87 1001.61 1001.44 1001.47 1001.32 1001.24 1002.43 1003.85 1003.86 1004.46 1004.76 1004.81 1004.72 1004.52 1004.57 1004.40 1004.26 1003.42
1015.00 1014.62 1014.31 1013.81 1013.34 1012.83 1011.71 1010.07 1009.19 1008.80 1007.21 1003.32 1003.18 1002.56 1001.41 1000.96 1000.43 1000.56 1001.32 1001.20 1001.51 1001.93 1002.04 1001.73 1001.71 1001.76 1001.63 1000.96 1000.51 1000.73 1000.65 1000.38 1000.24 1001.15 1002.49 1003.44 1004.01 1004.33 1004.60 1004.57 1004.25 1004.21 1004.20 1004.00 1003.94
1014.57 1014.30 1014.02 1013.64 1013.10 1010.34 1009.05 1008.08 1008.80 1008.75 1006.57 1001.04 1000.70 1000.92 1000.64 1000.72 999.80 1000.01 1000.78 1000.67 1001.05 1000.93 1001.21 1001.08 1001.02 1000.87 1000.38 1000.01 1000.02 999.94 1000.04 999.84 1000.27 1000.63 1001.61 1003.03 1002.85 1002.81 1003.54 1003.68 1003.54 1003.62 1003.72 1003.94 1004.17
1014.24 1013.91 1013.58 1013.33 1011.94 1010.00 1008.15 1007.48 1007.63 1008.77 1004.52 997.90 998.73 998.37 999.41 999.57 998.59 999.49 1000.20 999.85 1000.03 999.90 1000.34 1000.07 999.60 999.82 999.56 999.59 999.69 999.61 999.47 999.84 1000.19 1000.30 1001.16 1001.41 1002.07 1000.73 1002.02 1002.78 1002.80 1002.73 1002.92 1003.21 1003.68
1013.50 1012.93 1012.96 1012.12 1011.40 1009.35 1008.09 1007.84 1008.56 1007.37 1001.92 997.89 997.55 997.98 998.52 998.62 998.27 999.16 999.66 999.43 999.45 999.32 999.42 999.11 998.76 998.65 999.11 999.15 999.29 999.38 999.95 999.97 1000.58 1000.51 1000.75 1000.62 1000.48 1000.14 1000.19 1001.17 1002.47 1002.87 1003.18 1003.35 1003.72
1012.67 1012.08 1012.20 1011.65 1008.52 1006.95 1008.31 1008.43 1008.32 1004.85 999.36 998.03 997.60 997.46 997.64 997.67 997.65 998.45 998.98 998.94 998.55 998.54 998.30 998.55 997.96 997.96 998.19 998.45 998.95 999.20 999.81 999.98 1000.41 1000.59 1000.21 999.94 999.74 999.08 998.47 999.93 1001.29 1002.53 1003.29 1003.74 1004.29
1011.36 1009.78 1008.83 1008.87 1008.54 1008.16 1007.97 1008.64 1006.58 1002.65 1000.92 999.18 997.79 997.57 996.98 997.04 996.87 997.81 998.46 998.39 998.25 997.96 997.68 997.75 997.65 997.17 997.75 997.95 998.22 998.71 999.68 999.47 999.68 1000.32 999.75 999.34 998.51 997.94 997.76 999.36 1000.95 1002.57 1003.70 1004.30 1004.88
1010.36 1007.44 1005.93 1006.27 1006.77 1007.52 1008.15 1007.53 1005.52 1003.75 1002.99 1001.45 998.42 997.36 996.51 996.39 996.26 997.21 997.63 997.53 997.40 997.20 996.88 996.76 996.85 996.97 997.45 997.56 997.74 998.25 998.57 998.90 999.53 1001.09 1000.35 998.86 999.43 999.66 999.64 1000.40 1001.24 1002.34 1003.25 1003.99 1004.50
1009.82 1007.29 1005.15 1005.00 1006.04 1007.15 1007.69 1006.53 1005.24 1005.06 1004.18 1003.27 1000.74 997.42 996.47 996.11 995.92 996.44 996.94 996.88 996.64 996.60 996.54 996.80 996.78 997.27 997.29 998.04 997.82 997.66 998.69 999.42 1000.15 1000.41 1000.72 999.71 999.77 999.79 1000.02 1000.60 1001.53 1002.45 1003.36 1004.14 1004.82
1008.46 1005.58 1004.27 1004.90 1005.84 1006.65 1006.00 1005.65 1004.86 1005.10 1005.31 1004.71 1002.29 999.90 997.23 996.11 995.84 996.08 996.25 996.37 996.30 996.26 996.57 997.58 997.59 998.34 997.76 997.95 997.69 997.97 999.54 998.79 999.09 999.29 999.93 1001.79 1002.71 1000.09 1000.34 1000.89 1001.51 1002.25 1003.33 1004.31 1004.76
1008.25 1005.23 1004.47 1004.71 1005.12 1005.04 1004.60 1003.81 1004.40 1004.97 1005.46 1005.06 1004.05 1002.25 1000.20 997.89 996.47 996.11 995.79 995.69 995.87 995.96 996.42 997.33 998.21 998.05 998.34 998.43 998.43 997.99 998.14 998.53 998.99 999.60 999.88 1001.53 1002.80 1003.45 1000.77 1001.42 1002.04 1002.69 1003.44 1003.90 1004.62
1009.21 1005.40 1004.42 1004.43 1004.54 1004.11 1003.62 1003.47 1004.01 1004.68 1004.87 1005.10 1004.11 1002.91 1001.53 999.95 998.81 996.68 995.98 996.49 995.72 995.95 996.74 997.82 999.25 999.66 999.94 1000.52 998.79 998.60 998.66 998.74 1000.02 1000.14 1000.65 1001.46 1003.86 1002.75 1001.83 1002.40 1003.51 1003.51 1004.01 1004.23 1004.75
1010.27 1005.22 1004.83 1005.08 1004.11 1003.95 1004.24 1004.09 1003.99 1003.89 1004.11 1004.44 1004.17 1003.39 1002.83 1001.43 999.62 997.74 997.19 997.42 997.07 997.33 998.55 998.44 999.58 1000.39 1001.44 1000.91 1000.20 999.78 999.33 999.42 1000.34 1001.35 1001.79 1001.60 1003.27 1002.89 1002.27 1002.68 1003.39 1003.47 1003.71 1004.22 1004.80
1009.76 1007.40 1006.88 1006.50 1005.73 1005.05 1004.83 1004.81 1004.19 1003.67 1003.57 1003.49 1003.53 1003.29 1002.90 1001.89 1000.38 998.75 998.46 998.41 998.26 998.90 999.05 999.45 1000.53 1001.48 1002.24 1002.57 1001.80 1000.33 1000.09 1000.09 1000.72 1001.07 1002.31 1002.23 1002.48 1003.19 1003.74 1003.40 1003.30 1003.61 1004.08 1004.55 1004.95
1010.66 1009.39 1008.42 1007.34 1005.33 1004.75 1004.71 1004.80 1004.16 1003.78 1003.93 1003.22 1003.15 1002.79 1002.72 1002.48 1000.90 999.55 999.44 998.97 998.87 999.69 999.86 1000.60 1001.89 1002.87 1003.29 1002.96 1002.49 1001.79 1001.43 1001.22 1001.24 1001.54 1002.04 1002.52 1003.24 1003.76 1003.13 1003.14 1003.73 1004.15 1004.47 1005.30 1005.73
1011.90 1010.97 1009.78 1007.50 1005.39 1004.72 1004.77 1004.93 1003.96 1003.55 1002.92 1002.61 1002.85 1002.72 1002.03 1001.78 1001.75 1000.73 999.20 999.47 999.42 999.80 1000.43 1001.63 1003.59 1004.37 1004.45 1004.18 1002.96 1002.32 1001.15 1000.98 1001.14 1001.29 1001.68 1001.81 1001.95 1002.06 1002.94 1003.66 1004.16 1004.48 1004.89 1005.43 1005.85
Thickness
5585 5579 5573 5565 5559 5554 5551 5550 5552 5557 5564 5571 5579 5584 5591 5600 5609 5622 5641 5664 5672 5682 5684 5698 5708 5714 5723 5725 5741 5754 5730 5733 5759 5772 5798 5812 5810 5831 5853 5840 5849 5869 5854 5846 5844
5579 5573 5566 5559 5554 5547 5545 5545 5548 5552 5558 5565 5573 5579 5585 5593 5607 5629 5656 5664 5670 5671 5678 5689 5695 5705 5705 5715 5727 5723 5724 5743 5776 5785 5783 5784 5787 5810 5825 5824 5832 5851 5855 5843 5813
5574 5569 5561 5556 5551 5547 5541 5541 5544 5548 5554 5561 5568 5573 5579 5587 5605 5650 5678 5668 5669 5668 5678 5689 5696 5701 5698 5714 5720 5724 5714 5752 5777 5769 5778 5767 5772 5785 5800 5804 5828 5828 5826 5827 5842
5570 5564 5558 5551 5548 5544 5540 5539 5542 5547 5552 5559 5565 5570 5576 5588 5622 5661 5673 5672 5667 5666 5670 5679 5689 5692 5693 5699 5721 5711 5729 5741 5759 5760 5754 5754 5763 5756 5775 5808 5821 5825 5830 5831 5823
5566 5561 5554 5550 5544 5542 5541 5540 5543 5548 5553 5557 5562 5568 5576 5601 5626 5658 5665 5665 5662 5662 5667 5673 5681 5688 5692 5703 5711 5711 5728 5739 5749 5740 5745 5747 5749 5747 5760 5789 5803 5812 5820 5826 5811
5564 5559 5555 5551 5547 5544 5544 5546 5546 5550 5553 5557 5562 5567 5580 5603 5653 5666 5665 5661 5662 5660 5661 5670 5683 5694 5691 5698 5704 5718 5725 5733 5745 5737 5739 5732 5737 5737 5759 5775 5781 5797 5805 5822 5827
5561 5556 5552 5549 5548 5545 5545 5547 5550 5551 5554 5558 5562 5570 5589 5617 5658 5668 5668 5668 5668 5660 5657 5668 5680 5679 5687 5689 5711 5713 5706 5719 5719 5724 5719 5730 5721 5725 5751 5761 5767 5779 5794 5809 5822
5560 5554 5551 5548 5547 5545 5545 5547 5551 5553 5556 5559 5562 5571 5597 5644 5651 5654 5664 5666 5670 5665 5659 5664 5669 5672 5678 5696 5695 5695 5696 5682 5715 5717 5717 5708 5698 5737 5751 5745 5754 5765 5778 5793 5810
5557 5553 5550 5548 5547 5547 5545 5547 5551 5556 5560 5560 5563 5573 5611 5656 5647 5657 5662 5659 5661 5656 5655 5661 5658 5657 5669 5669 5676 5690 5665 5660 5679 5726 5713 5696 5693 5721 5734 5741 5739 5752 5763 5782 5798
5556 5551 5549 5549 5548 5547 5546 5547 5551 5552 5558 5562 5571 5576 5615 5641 5655 5658 5666 5665 5654 5648 5643 5647 5646 5642 5656 5663 5656 5672 5668 5670 5677 5718 5715 5682 5692 5713 5730 5730 5735 5742 5751 5769 5778
5554 5550 5546 5545 5544 5545 5546 5553 5553 5555 5562 5588 5606 5619 5650 5657 5667 5660 5666 5661 5654 5644 5634 5647 5633 5631 5652 5670 5683 5670 5679 5682 5707 5725 5699 5690 5698 5702 5722 5722 5728 5731 5742 5757 5762
5552 5549 5547 5546 5542 5541 5542 5555 5577 5576 5584 5601 5610 5625 5644 5660 5648 5657 5666 5649 5642 5629 5640 5638 5634 5656 5670 5678 5684 5692 5692 5699 5721 5712 5692 5692 5692 5700 5709 5716 5729 5731 5733 5741 5753
5553 5549 5546 5545 5544 5546 5551 5562 5570 5574 5578 5619 5623 5628 5643 5653 5651 5654 5659 5657 5648 5639 5641 5638 5651 5665 5665 5676 5687 5688 5689 5704 5712 5720 5702 5693 5686 5691 5704 5711 5722 5729 5734 5738 5740
5552 5547 5544 5540 5542 5561 5566 5575 5568 5569 5571 5626 5630 5633 5642 5647 5647 5667 5664 5660 5651 5646 5651 5653 5666 5666 5673 5678 5690 5680 5709 5716 5708 5702 5674 5695 5667 5695 5699 5702 5716 5721 5726 5730 5734
5551 5546 5542 5536 5547 5555 5569 5574 5573 5560 5574 5655 5644 5664 5653 5647 5663 5657 5668 5665 5651 5659 5658 5654 5668 5666 5671 5679 5695 5688 5717 5708 5707 5702 5694 5695 5676 5713 5708 5693 5709 5722 5727 5730 5728
5552 5549 5541 5543 5542 5557 5565 5567 5557 5555 5587 5636 5649 5642 5641 5648 5658 5659 5658 5672 5673 5666 5670 5673 5695 5692 5682 5695 5700 5709 5695 5701 5700 5699 5669 5694 5694 5698 5707 5711 5707 5714 5718 5723 5725
5551 5547 5541 5538 5560 5570 5560 5553 5545 5566 5642 5634 5638 5648 5648 5646 5654 5652 5646 5648 5650 5642 5654 5669 5683 5697 5700 5689 5698 5698 5683 5657 5660 5663 5664 5708 5698 5708 5733 5725 5717 5712 5713 5716 5717
5554 5560 5561 5553 5552 5554 5554 5540 5557 5607 5612 5633 5644 5645 5643 5652 5658 5653 5646 5644 5663 5666 5664 5655 5652 5690 5697 5690 5686 5689 5681 5668 5652 5664 5683 5714 5695 5717 5739 5730 5720 5710 5709 5712 5708
5555 5573 5577 5566 5559 5554 5543 5542 5566 5585 5590 5599 5634 5638 5646 5656 5662 5651 5649 5653 5667 5677 5667 5668 5669 5701 5699 5705 5706 5690 5678 5706 5680 5670 5674 5710 5703 5711 5719 5711 5714 5709 5705 5704 5705
5552 5563 5568 5570 5559 5550 5540 5549 5568 5567 5578 5585 5596 5647 5646 5653 5658 5651 5649 5666 5670 5686 5697 5683 5672 5689 5698 5699 5704 5702 5706 5674 5676 5646 5633 5685 5690 5688 5702 5703 5701 5697 5697 5694 5696
5553 5567 5569 5565 5557 5543 5548 5553 5570 5570 5570 5571 5593 5610 5653 5660 5666 5654 5656 5668 5678 5685 5694 5677 5673 5664 5689 5678 5683 5690 5668 5689 5697 5699 5668 5631 5624 5707 5702 5702 5699 5697 5692 5688 5690
5546 5556 5561 5561 5547 5555 5561 5576 5569 5567 5564 5567 5578 5591 5609 5635 5658 5656 5658 5671 5687 5691 5679 5684 5664 5661 5670 5693 5697 5700 5693 5696 5677 5673 5686 5658 5652 5671 5698 5695 5695 5693 5688 5690 5689
5527 5549 5557 5556 5544 5558 5575 5578 5574 5566 5567 5564 5573 5590 5603 5615 5622 5656 5667 5668 5688 5684 5679 5677 5651 5637 5643 5650 5682 5678 5689 5697 5683 5683 5671 5663 5629 5684 5693 5685 5674 5678 5674 5676 5678
5509 5548 5544 5542 5560 5562 5558 5558 5565 5578 5574 5568 5572 5585 5587 5600 5623 5641 5641 5654 5665 5670 5654 5668 5654 5640 5621 5641 5664 5660 5676 5687 5669 5642 5656 5673 5652 5664 5675 5674 5672 5675 5676 5672 5664
5506 5521 5519 5509 5531 5545 5546 5546 5559 5566 5575 5578 5575 5577 5585 5590 5614 5626 5635 5641 5652 5643 5656 5658 5640 5643 5638 5626 5643 5660 5663 5670 5658 5662 5641 5658 5658 5655 5654 5658 5666 5669 5669 5665 5661
5484 5495 5501 5512 5536 5546 5543 5539 5551 5562 5560 5570 5571 5580 5580 5579 5617 5622 5624 5633 5634 5638 5643 5647 5625 5625 5623 5639 5639 5637 5644 5648 5652 5653 5647 5649 5640 5651 5660 5665 5660 5658 5658 5651 5648
5464 5473 5482 5508 5536 5544 5545 5545 5556 5565 5574 5579 5577 5574 5592 5600 5602 5616 5635 5639 5640 5632 5630 5622 5598 5601 5600 5613 5629 5622 5643 5650 5652 5658 5654 5645 5659 5669 5655 5653 5651 5651 5648 5644 5643